TimeMST,TemperatureF,Dew PointF,Humidity,Sea Level PressureIn,VisibilityMPH,Wind Direction,Wind SpeedMPH,Gust SpeedMPH,PrecipitationIn,Events,Conditions,WindDirDegrees,DateUTC
12:56 AM,-0.9,-5.1,83,30.18,-9999.0,Calm,Calm,-,N/A,,Unknown,0,2012-12-25 07:56:00
1:56 AM,-2.0,-7.1,79,30.20,-9999.0,WNW,3.5,-,N/A,,Unknown,300,2012-12-25 08:56:00
2:56 AM,-2.0,-6.0,83,30.23,-9999.0,Calm,Calm,-,N/A,,Unknown,0,2012-12-25 09:56:00
3:56 AM,-4.0,-9.0,79,30.26,-9999.0,Calm,Calm,-,N/A,,Unknown,0,2012-12-25 10:56:00
4:56 AM,-7.1,-11.9,79,30.29,-9999.0,Calm,Calm,-,N/A,,Unknown,0,2012-12-25 11:56:00
5:56 AM,-6.0,-9.9,83,30.32,-9999.0,NW,3.5,-,N/A,,Unknown,310,2012-12-25 12:56:00
6:56 AM,-2.9,-7.1,82,30.32,-9999.0,Calm,Calm,-,N/A,,Unknown,0,2012-12-25 13:56:00
7:56 AM,-2.9,-7.1,82,30.31,-9999.0,Calm,Calm,-,N/A,,Unknown,0,2012-12-25 14:56:00
8:56 AM,1.0,-4.0,79,30.31,-9999.0,Calm,Calm,-,N/A,,Unknown,0,2012-12-25 15:56:00
9:56 AM,8.1,3.9,83,30.27,-9999.0,Calm,Calm,-,N/A,,Unknown,0,2012-12-25 16:56:00
10:56 AM,12.9,7.0,77,30.25,-9999.0,Calm,Calm,-,N/A,,Unknown,0,2012-12-25 17:56:00
11:56 AM,14.0,8.1,77,30.25,-9999.0,Variable,3.5,-,N/A,,Unknown,0,2012-12-25 18:56:00
12:56 PM,15.1,8.1,74,30.23,-9999.0,Variable,3.5,-,N/A,,Unknown,0,2012-12-25 19:56:00
1:56 PM,16.0,7.0,68,30.22,-9999.0,Calm,Calm,-,N/A,,Unknown,0,2012-12-25 20:56:00
2:56 PM,12.9,6.1,74,30.23,-9999.0,Variable,4.6,-,N/A,,Unknown,0,2012-12-25 21:56:00
3:56 PM,12.0,6.1,77,30.25,-9999.0,Variable,3.5,-,N/A,,Unknown,0,2012-12-25 22:56:00
4:56 PM,10.9,5.0,77,30.27,-9999.0,West,3.5,-,N/A,,Unknown,280,2012-12-25 23:56:00
5:56 PM,5.0,1.0,84,30.29,-9999.0,Calm,Calm,-,N/A,,Unknown,0,2012-12-26 00:56:00
6:56 PM,8.1,3.9,83,30.23,-9999.0,Calm,Calm,-,N/A,,Unknown,0,2012-12-26 01:56:00
7:56 PM,8.1,3.9,83,30.20,-9999.0,Calm,Calm,-,N/A,,Unknown,0,2012-12-26 02:56:00
8:56 PM,8.1,3.9,83,30.16,-9999.0,Calm,Calm,-,N/A,,Unknown,0,2012-12-26 03:56:00
9:56 PM,10.9,6.1,81,30.08,-9999.0,Calm,Calm,-,N/A,,Unknown,0,2012-12-26 04:56:00
10:56 PM,10.9,6.1,81,30.03,-9999.0,Calm,Calm,-,N/A,,Unknown,0,2012-12-26 05:56:00
11:56 PM,10.9,7.0,84,30.00,-9999.0,Calm,Calm,-,N/A,,Unknown,0,2012-12-26 06:56:00